Weather History for Bad Axe, MI

Change the Weather History Date:

Saturday, October 13, 2012

  Actual Average (KP58) Record (KP58)
Temperature  
Mean Temperature 40 °F -  
Max Temperature 54 °F 58 °F 81 °F (2008)
Min Temperature 26 °F 43 °F 33 °F (2006)
Degree Days  
Heating Degree Days 25    
Moisture  
Dew Point 37 °F    
Average Humidity 86    
Maximum Humidity 99    
Minimum Humidity 77    
Precipitation  
Precipitation 0.00 in - - ()
Sea Level Pressure  
Sea Level Pressure 30.15 in    
Wind  
Wind Speed 6 mph (SSE)    
Max Wind Speed 21 mph    
Max Gust Speed 25 mph    
Visibility 9 miles    
Events Rain    
Averages and records for this station are not official NWS values.
T = Trace of Precipitation, MM = Missing Value Source: NWS Daily Summary

Daily Weather History Graph

Daily Weather History Graph

Search for Another Location

Airport:

Trip Planner

Search our weather history database for the weather conditions in past years. The results will help you decide how hot, cold, wet, or windy it might be!

Date:

Astronomy

Oct. 13, 2012 Rise Set
Actual Time 7:44 AM EDT 6:50 PM EDT
Civil Twilight 7:15 AM EDT 7:19 PM EDT
Nautical Twilight 6:42 AM EDT 7:53 PM EDT
Astronomical Twilight 6:08 AM EDT 8:26 PM EDT
Moon 5:29 AM EDT (10/13) 5:35 PM EDT (10/13)
Length of Visible Light 12h 04m
Length of Day
11h 06m
Waning Crescent, 5% of the Moon is Illuminated
Oct 13
Waning Crescent
Oct 15
New
Oct 21
First Quarter
Oct 29
Full
Nov 6
Last Quarter

Hourly Weather History & Observations

Time (EDT) Temp. Windchill Dew Point Humidity Pressure Visibility Wind Dir Wind Speed Gust Speed Precip Events Conditions
12:13 AM 28.4 °F - 26.1 °F 91% 30.39 in 10.0 mi Calm Calm - N/A   Clear
12:34 AM 27.9 °F - 25.3 °F 90% 30.39 in 10.0 mi Calm Calm - N/A   Clear
12:54 AM 27.7 °F - 25.2 °F 90% 30.38 in 10.0 mi Calm Calm - N/A   Clear
1:13 AM 26.4 °F - 23.9 °F 90% 30.38 in 10.0 mi Calm Calm - N/A   Clear
1:54 AM 27.5 °F - 25.3 °F 92% 30.37 in 10.0 mi Calm Calm - N/A   Clear
2:13 AM 29.7 °F 26.1 °F 26.8 °F 89% 30.36 in 10.0 mi SSE 3.5 mph - N/A   Clear
2:34 AM 32.2 °F 27.7 °F 27.9 °F 84% 30.36 in 10.0 mi SSE 4.6 mph - N/A   Clear
2:53 AM 33.1 °F 28.7 °F 27.9 °F 81% 30.35 in 10.0 mi SSE 4.6 mph - N/A   Clear
3:14 AM 32.9 °F 28.5 °F 27.3 °F 80% 30.34 in 10.0 mi SSE 4.6 mph - N/A   Clear
3:34 AM 32.9 °F 28.5 °F 27.3 °F 80% 30.34 in 10.0 mi SSE 4.6 mph - N/A   Clear
3:53 AM 33.1 °F 28.7 °F 26.6 °F 77% 30.34 in 10.0 mi SSE 4.6 mph - N/A   Clear
4:14 AM 31.8 °F - 25.9 °F 79% 30.34 in 10.0 mi Calm Calm - N/A   Clear
4:33 AM 31.5 °F 26.8 °F 26.4 °F 82% 30.33 in 10.0 mi SSE 4.6 mph - N/A   Clear
4:54 AM 33.4 °F 28.1 °F 27.5 °F 79% 30.32 in 10.0 mi SSE 5.8 mph - N/A   Clear
5:13 AM 33.8 °F 28.6 °F 27.5 °F 78% 30.31 in 10.0 mi SSE 5.8 mph - N/A   Clear
5:34 AM 33.8 °F 29.6 °F 27.3 °F 77% 30.32 in 10.0 mi SSE 4.6 mph - N/A   Clear
5:54 AM 32.5 °F 28.1 °F 27.3 °F 81% 30.32 in 10.0 mi South 4.6 mph - N/A   Clear
6:14 AM 33.6 °F - 28.0 °F 80% 30.32 in 10.0 mi Calm Calm - N/A   Clear
6:54 AM 34.3 °F 28.4 °F 29.1 °F 81% 30.30 in 10.0 mi SSE 6.9 mph - N/A   Clear
7:14 AM 36.0 °F 31.1 °F 29.8 °F 78% 30.31 in 10.0 mi SSE 5.8 mph - N/A   Clear
7:33 AM 36.1 °F 31.4 °F 29.8 °F 78% 30.30 in 10.0 mi SSE 5.8 mph - N/A   Clear
7:54 AM 36.0 °F 32.1 °F 30.0 °F 79% 30.30 in 10.0 mi SSE 4.6 mph - N/A   Clear
8:14 AM 36.7 °F 32.0 °F 30.9 °F 80% 30.30 in 10.0 mi SSE 5.8 mph - N/A   Scattered Clouds
8:33 AM 38.3 °F 33.9 °F 32.0 °F 78% 30.28 in 10.0 mi SSE 5.8 mph - N/A   Clear
8:54 AM 38.8 °F 35.4 °F 32.4 °F 78% 30.29 in 10.0 mi SSE 4.6 mph - N/A   Scattered Clouds
9:14 AM 39.6 °F 35.4 °F 33.8 °F 80% 30.29 in 10.0 mi SSE 5.8 mph - N/A   Mostly Cloudy
9:54 AM 41.0 °F 35.8 °F 35.2 °F 80% 30.28 in 10.0 mi SSE 8.1 mph - N/A   Overcast
10:33 AM 41.5 °F 36.4 °F 37.4 °F 85% 30.27 in 10.0 mi SSE 8.1 mph - N/A Rain Light Rain
10:52 AM 42.4 °F 37.5 °F 38.1 °F 85% 30.27 in 10.0 mi South 8.1 mph - N/A Rain Light Rain
11:13 AM 43.3 °F 36.5 °F 38.3 °F 82% 30.24 in 10.0 mi South 13.8 mph - N/A Rain Light Rain
11:34 AM 43.9 °F 37.5 °F 38.8 °F 82% 30.22 in 10.0 mi South 12.7 mph - N/A   Overcast
11:54 AM 45.5 °F 38.9 °F 39.2 °F 79% 30.20 in 10.0 mi South 15.0 mph 24.2 mph N/A   Overcast
12:13 PM 45.3 °F 39.3 °F 39.2 °F 79% 30.19 in 10.0 mi South 12.7 mph 21.9 mph N/A   Overcast
12:34 PM 45.5 °F 38.9 °F 39.6 °F 80% 30.17 in 10.0 mi SSE 15.0 mph 20.7 mph N/A   Overcast
12:54 PM 45.5 °F 39.9 °F 39.7 °F 80% 30.14 in 10.0 mi SSE 11.5 mph 17.3 mph N/A Rain Rain
1:13 PM 44.6 °F 38.4 °F 41.0 °F 87% 30.12 in 7.0 mi SSE 12.7 mph - N/A Rain Light Rain
1:34 PM 45.0 °F 38.5 °F 41.7 °F 88% 30.10 in 10.0 mi SSE 13.8 mph 18.4 mph N/A   Light Drizzle
1:54 PM 45.5 °F 38.9 °F 41.9 °F 87% 30.08 in 10.0 mi South 15.0 mph 19.6 mph N/A   Overcast
2:14 PM 45.9 °F 38.8 °F 42.6 °F 88% 30.06 in 10.0 mi South 17.3 mph 20.7 mph N/A   Overcast
2:34 PM 46.0 °F 39.3 °F 42.8 °F 88% 30.04 in 10.0 mi South 16.1 mph 23.0 mph N/A   Light Drizzle
2:53 PM 45.5 °F 38.3 °F 42.8 °F 90% 30.03 in 4.0 mi South 17.3 mph 25.3 mph N/A Rain Rain
3:14 PM 45.1 °F 39.5 °F 43.0 °F 92% 30.01 in 4.0 mi SSE 11.5 mph 21.9 mph N/A Rain Rain
3:34 PM 45.1 °F 38.8 °F 43.3 °F 93% 30.01 in 10.0 mi SSE 13.8 mph 18.4 mph N/A   Overcast
3:53 PM 45.5 °F 39.6 °F 43.3 °F 92% 29.99 in 10.0 mi SSE 12.7 mph 18.4 mph N/A   Overcast
4:14 PM 45.9 °F 39.4 °F 43.3 °F 91% 29.98 in 10.0 mi SSE 15.0 mph - N/A   Overcast
4:33 PM 46.4 °F 41.5 °F 42.8 °F 87% 29.96 in 10.0 mi SSE 10.4 mph - N/A   Overcast
4:54 PM 46.6 °F - 43.0 °F 87% 29.93 in 10.0 mi SSE 11.5 mph 17.3 mph N/A   Overcast
5:14 PM 47.3 °F - 43.9 °F 88% 29.93 in 7.0 mi South 10.4 mph 18.4 mph N/A Rain Heavy Rain
5:33 PM 47.3 °F - 44.8 °F 91% 29.93 in 1.8 mi South 11.5 mph 21.9 mph N/A Rain Rain
5:54 PM 47.3 °F - 45.3 °F 93% 29.92 in 10.0 mi South 12.7 mph - N/A Rain Rain
6:14 PM 47.7 °F - 45.7 °F 93% 29.91 in 3.0 mi South 17.3 mph 25.3 mph N/A Rain Heavy Rain
6:54 PM 48.6 °F - 47.1 °F 95% 29.90 in 7.0 mi South 20.7 mph 24.2 mph N/A Rain Rain
7:14 PM 48.7 °F - 47.5 °F 95% 29.90 in 5.0 mi South 16.1 mph 23.0 mph N/A Rain Heavy Rain
7:34 PM 49.5 °F - 48.2 °F 95% 29.90 in 10.0 mi South 15.0 mph 24.2 mph N/A   Overcast
7:54 PM 49.6 °F - 48.4 °F 95% 29.89 in 7.0 mi South 15.0 mph 21.9 mph N/A Rain Rain
8:34 PM 50.0 °F - 49.1 °F 97% 29.86 in 5.0 mi South 12.7 mph - N/A Rain Light Rain
8:54 PM 50.4 °F - 49.5 °F 97% 29.85 in 7.0 mi South 13.8 mph - N/A   Light Drizzle
10:14 PM 52.9 °F - 52.3 °F 98% 29.84 in 5.0 mi SSW 9.2 mph - N/A   Overcast
10:34 PM 53.6 °F - 53.1 °F 98% 29.84 in 2.5 mi SSW 9.2 mph - N/A Rain Light Rain
10:54 PM 54.1 °F - 53.8 °F 99% 29.84 in 4.0 mi SSW 6.9 mph - N/A   Light Drizzle
11:14 PM 54.7 °F - 54.3 °F 99% 29.83 in 2.0 mi SSW 8.1 mph - N/A   Drizzle